• Processing (Info)

  • MPEC 2014-J73 : 2014 JN25

    The following Minor Planet Electronic Circular may be linked-to from your own Web pages, but must not otherwise be redistributed electronically.

    A form allowing access to any MPEC is at the bottom of this page.


    Read MPEC 2014-J72 Read MPEC 2014-J74


    M.P.E.C. 2014-J73                                Issued 2014 May 8, 17:08 UT
    
         The Minor Planet Electronic Circulars contain information on unusual
             minor planets and routine data on comets.  They are published
       on behalf of Commission 20 of the International Astronomical Union by the
              Minor Planet Center, Smithsonian Astrophysical Observatory,
                              Cambridge, MA 02138, U.S.A.
    
                 Prepared using the Tamkin Foundation Computer Network
    
                                  MPC@CFA.HARVARD.EDU
                URL https://www.minorplanetcenter.net/    ISSN 1523-6714
    
                                       2014 JN25
    
    Observations:
         K14J25N* C2014 05 04.44644 15 20 59.037-13 12 38.27         21.1 wLEJ073F51
         K14J25N  C2014 05 04.47031 15 21 05.858-13 10 33.03         21.2 wLEJ073F51
         K14J25N  C2014 05 04.48223 15 21 09.276-13 09 30.23         21.3 wLEJ073F51
         K14J25N _C2014 05 05.54721515 27 19.940-11 32 28.22         21.2 RtEJ073568
         K14J25N _C2014 05 05.54897615 27 20.502-11 32 18.08         21.2 RtEJ073568
         K14J25N _C2014 05 05.55023015 27 20.889-11 32 10.82         21.1 RtEJ073568
         K14J25N KC2014 05 08.44311 15 46 27.04 -06 25 44.9          21.3 RoEJ073291
         K14J25N KC2014 05 08.44588 15 46 28.13 -06 25 25.2          21.5 RoEJ073291
         K14J25N KC2014 05 08.44874 15 46 29.23 -06 25 04.9          20.9 RoEJ073291
    
    Observer details:
    291 LPL/Spacewatch II.  Observer J. V. Scotti.  1.8-m f/2.7 reflector + CCD.
    568 Mauna Kea.  Observers R. J. Wainscoat, L. Wells.  Measurers M. Micheli,
        R. J. Wainscoat.  3.6-m Canada-France-Hawaii Telescope + CCD.
    F51 Pan-STARRS 1, Haleakala.  Observers N. Primak, A. Schultz, T. Goggia,
        M. Willman.  Measurer PS1 Science Consortium.  1.8-m Ritchey-Chretien
        + CCD.
    
    Orbital elements:
    2014 JN25                                                Earth MOID = 0.0435 AU
    Epoch 2014 May 23.0 TT = JDT 2456800.5                  MPC
    M 344.07507              (2000.0)            P               Q
    n   0.65651064     Peri.   46.97702     -0.03691132     +0.99718988
    a   1.3111173      Node   221.04361     -0.94330688     -0.05630176
    e   0.2235157      Incl.    5.69777     -0.32986313     +0.04942123
    P   1.50           H   26.5           G   0.15           U   7
    Residuals in seconds of arc
    140504 F51  0.1-  0.4-    140505 568  0.1-  0.1+    140508 291  0.1-  0.0
    140504 F51  0.0   0.1+    140505 568  0.0   0.1+    140508 291  0.1+  0.0
    140504 F51  0.2+  0.3+    140505 568  0.2-  0.1+    140508 291  0.0   0.1-
    
    Ephemeris:
    2014 JN25                a,e,i = 1.31, 0.22, 6                   q = 1.0181
    Date    TT    R. A. (2000) Decl.     Delta      r     Elong.  Phase     V
    2014 04 08    14 02 01.2 -28 00 21   0.1591  1.1475   155.2    21.5    23.9
    ...
    2014 04 23    14 33 52.5 -23 51 08   0.09968 1.1024   166.2    12.6    22.5
    ...
    2014 05 01    15 03 22.2 -17 32 42   0.07429 1.0811   172.0     7.5    21.6
    ...
    2014 05 07    15 36 35.4 -09 05 34   0.05913 1.0667   167.3    12.0    21.2
    2014 05 08    15 43 23.4 -07 15 35   0.05702 1.0644   165.4    13.8    21.2
    2014 05 09    15 50 36.3 -05 17 32   0.05506 1.0622   163.3    15.9    21.2
    ...
    2014 05 15    16 43 23.7 +09 09 27   0.04682 1.0500   146.2    32.4    21.3
    ...
    2014 05 23    18 16 39.7 +29 56 54   0.04708 1.0364   119.5    58.2    22.0
    ...
    2014 06 07    20 58 06.9 +45 42 05   0.07156 1.0208    92.8    83.2    23.7
    
    A. U. Tomatic                (C) Copyright 2014 MPC           M.P.E.C. 2014-J73
    

    Read MPEC 2014-J72 Read MPEC 2014-J74


    MPEC number:

    Enter an MPEC number in one of the following forms:

    • 1997-B01 (the full form)
    • J97B01 (the packed version of the full form)
    • B01 (the abbreviated form)